Time,TemperatureF,DewpointF,PressureIn,WindDirection,WindDirectionDegrees,WindSpeedMPH,WindSpeedGustMPH,Humidity,HourlyPrecipIn,Conditions,Clouds,dailyrainin,SolarRadiationWatts/m^2,SoftwareType,DateUTC
2013-09-27 00:00:00,58.0,52.0,-100.00,SSE,148,3.0,9.0,80,0.00,,,0.00,0.000000,,2013-09-27 05:00:00,
2013-09-27 00:23:00,58.0,52.0,-100.00,SSE,148,3.0,9.0,80,0.00,,,0.00,0.000000,,2013-09-27 05:23:00,
2013-09-27 00:34:00,58.0,52.0,-100.00,SSE,148,3.0,9.0,80,0.00,,,0.00,0.000000,,2013-09-27 05:34:00,
2013-09-27 00:43:00,58.0,52.0,-100.00,SSE,148,3.0,9.0,80,0.00,,,0.00,0.000000,,2013-09-27 05:43:00,
2013-09-27 00:52:00,58.0,52.0,-100.00,SSE,148,3.0,9.0,80,0.00,,,0.00,0.000000,,2013-09-27 05:52:00,
2013-09-27 02:00:00,56.0,51.0,-100.00,SE,131,2.0,7.0,84,-99.99,,,0.00,0.000000,,2013-09-27 07:00:00,
2013-09-27 02:44:00,56.0,51.0,-100.00,SE,131,2.0,7.0,84,-99.99,,,0.00,0.000000,,2013-09-27 07:44:00,
2013-09-27 02:53:00,56.0,51.0,-100.00,SE,131,2.0,7.0,84,-99.99,,,0.00,0.000000,,2013-09-27 07:53:00,
2013-09-27 03:00:00,55.0,51.0,-100.00,SE,141,2.0,6.0,87,0.00,,,0.00,0.000000,,2013-09-27 08:00:00,
2013-09-27 03:22:00,55.0,51.0,-100.00,SE,141,2.0,6.0,87,0.00,,,0.00,0.000000,,2013-09-27 08:22:00,
2013-09-27 03:32:00,55.0,51.0,-100.00,SE,141,2.0,6.0,87,0.00,,,0.00,0.000000,,2013-09-27 08:32:00,
2013-09-27 03:42:00,55.0,51.0,-100.00,SE,141,2.0,6.0,87,0.00,,,0.00,0.000000,,2013-09-27 08:42:00,
2013-09-27 03:52:00,55.0,51.0,-100.00,SE,141,2.0,6.0,87,0.00,,,0.00,0.000000,,2013-09-27 08:52:00,
2013-09-27 04:00:00,54.0,50.0,-100.00,SSE,148,2.0,6.0,86,0.00,,,0.00,0.000000,,2013-09-27 09:00:00,
2013-09-27 04:44:00,54.0,50.0,-100.00,SSE,148,2.0,6.0,86,0.00,,,0.00,0.000000,,2013-09-27 09:44:00,
2013-09-27 04:54:00,54.0,50.0,-100.00,SSE,148,2.0,6.0,86,0.00,,,0.00,0.000000,,2013-09-27 09:54:00,
2013-09-27 05:00:00,54.0,49.0,-100.00,SE,137,3.0,8.0,83,0.00,,,0.00,0.000000,,2013-09-27 10:00:00,
2013-09-27 05:42:00,54.0,49.0,-100.00,SE,137,3.0,8.0,83,0.00,,,0.00,0.000000,,2013-09-27 10:42:00,
2013-09-27 05:52:00,54.0,49.0,-100.00,SE,137,3.0,8.0,83,0.00,,,0.00,0.000000,,2013-09-27 10:52:00,
2013-09-27 06:00:00,53.0,48.0,-100.00,SE,140,3.0,8.0,82,0.00,,,0.00,0.000000,,2013-09-27 11:00:00,
2013-09-27 06:22:00,53.0,48.0,-100.00,SE,140,3.0,8.0,82,0.00,,,0.00,0.000000,,2013-09-27 11:22:00,
2013-09-27 06:33:00,53.0,48.0,-100.00,SE,140,3.0,8.0,82,0.00,,,0.00,0.000000,,2013-09-27 11:33:00,
2013-09-27 06:43:00,53.0,48.0,-100.00,SE,140,3.0,8.0,82,0.00,,,0.00,0.000000,,2013-09-27 11:43:00,
2013-09-27 06:52:00,53.0,48.0,-100.00,SE,140,3.0,8.0,82,0.00,,,0.00,0.000000,,2013-09-27 11:52:00,
2013-09-27 07:00:00,53.0,47.0,-100.00,SSE,151,3.0,7.0,80,0.00,,,0.00,1.000000,,2013-09-27 12:00:00,
2013-09-27 07:42:00,53.0,47.0,-100.00,SSE,151,3.0,7.0,80,0.00,,,0.00,1.000000,,2013-09-27 12:42:00,
2013-09-27 07:52:00,53.0,47.0,-100.00,SSE,151,3.0,7.0,80,0.00,,,0.00,1.000000,,2013-09-27 12:52:00,
2013-09-27 08:00:00,58.0,49.0,-100.00,SSE,150,3.0,8.0,71,0.00,,,0.00,70.000000,,2013-09-27 13:00:00,
2013-09-27 08:42:00,58.0,49.0,-100.00,SSE,150,3.0,8.0,71,0.00,,,0.00,70.000000,,2013-09-27 13:42:00,
2013-09-27 08:53:00,58.0,49.0,-100.00,SSE,150,3.0,8.0,71,0.00,,,0.00,70.000000,,2013-09-27 13:53:00,
2013-09-27 09:00:00,63.0,51.0,-100.00,SE,140,4.0,14.0,65,0.00,,,0.00,272.000000,,2013-09-27 14:00:00,
2013-09-27 09:42:00,63.0,51.0,-100.00,SE,140,4.0,14.0,65,0.00,,,0.00,272.000000,,2013-09-27 14:42:00,
2013-09-27 09:52:00,63.0,51.0,-100.00,SE,140,4.0,14.0,65,0.00,,,0.00,272.000000,,2013-09-27 14:52:00,
2013-09-27 10:00:00,68.0,54.0,-100.00,SSE,163,5.0,14.0,60,0.00,,,0.00,438.000000,,2013-09-27 15:00:00,
2013-09-27 10:22:00,68.0,54.0,-100.00,SSE,163,5.0,14.0,60,0.00,,,0.00,438.000000,,2013-09-27 15:22:00,
2013-09-27 10:33:00,68.0,54.0,-100.00,SSE,163,5.0,14.0,60,0.00,,,0.00,438.000000,,2013-09-27 15:33:00,
2013-09-27 10:44:00,68.0,54.0,-100.00,SSE,163,5.0,14.0,60,0.00,,,0.00,438.000000,,2013-09-27 15:44:00,
2013-09-27 10:54:00,68.0,54.0,-100.00,SSE,163,5.0,14.0,60,0.00,,,0.00,438.000000,,2013-09-27 15:54:00,
2013-09-27 11:00:00,72.0,55.0,-100.00,South,179,6.0,15.0,55,0.00,,,0.00,599.000000,,2013-09-27 16:00:00,
2013-09-27 11:44:00,72.0,55.0,-100.00,South,179,6.0,15.0,55,0.00,,,0.00,599.000000,,2013-09-27 16:44:00,
2013-09-27 11:53:00,72.0,55.0,-100.00,South,179,6.0,15.0,55,0.00,,,0.00,599.000000,,2013-09-27 16:53:00,
2013-09-27 12:00:00,75.0,56.0,-100.00,South,179,8.0,18.0,52,0.00,,,0.00,747.000000,,2013-09-27 17:00:00,
2013-09-27 12:43:00,75.0,56.0,-100.00,South,179,8.0,18.0,52,0.00,,,0.00,747.000000,,2013-09-27 17:43:00,
2013-09-27 12:52:00,75.0,56.0,-100.00,South,179,8.0,18.0,52,0.00,,,0.00,747.000000,,2013-09-27 17:52:00,
2013-09-27 13:00:00,75.0,57.0,-100.00,South,178,6.0,18.0,53,0.00,,,0.00,635.000000,,2013-09-27 18:00:00,
2013-09-27 13:43:00,75.0,57.0,-100.00,South,178,6.0,18.0,53,0.00,,,0.00,635.000000,,2013-09-27 18:43:00,
2013-09-27 13:52:00,75.0,57.0,-100.00,South,178,6.0,18.0,53,0.00,,,0.00,635.000000,,2013-09-27 18:52:00,
2013-09-27 14:00:00,77.0,56.0,-100.00,SSE,167,7.0,17.0,49,0.00,,,0.00,549.000000,,2013-09-27 19:00:00,
2013-09-27 14:43:00,77.0,56.0,-100.00,SSE,167,7.0,17.0,49,0.00,,,0.00,549.000000,,2013-09-27 19:43:00,
2013-09-27 14:53:00,77.0,56.0,-100.00,SSE,167,7.0,17.0,49,0.00,,,0.00,549.000000,,2013-09-27 19:53:00,
2013-09-27 15:00:00,76.0,56.0,-100.00,SSE,165,6.0,16.0,50,0.00,,,0.00,377.000000,,2013-09-27 20:00:00,
2013-09-27 15:22:00,76.0,56.0,-100.00,SSE,165,6.0,16.0,50,0.00,,,0.00,377.000000,,2013-09-27 20:22:00,
2013-09-27 15:32:00,76.0,56.0,-100.00,SSE,165,6.0,16.0,50,0.00,,,0.00,377.000000,,2013-09-27 20:32:00,
2013-09-27 15:43:00,76.0,56.0,-100.00,SSE,165,6.0,16.0,50,0.00,,,0.00,377.000000,,2013-09-27 20:43:00,
2013-09-27 15:52:00,76.0,56.0,-100.00,SSE,165,6.0,16.0,50,0.00,,,0.00,377.000000,,2013-09-27 20:52:00,
2013-09-27 16:00:00,75.0,56.0,-100.00,SSE,164,6.0,16.0,51,0.00,,,0.00,364.000000,,2013-09-27 21:00:00,
2013-09-27 16:44:00,75.0,56.0,-100.00,SSE,164,6.0,16.0,51,0.00,,,0.00,364.000000,,2013-09-27 21:44:00,
2013-09-27 16:54:00,75.0,56.0,-100.00,SSE,164,6.0,16.0,51,0.00,,,0.00,364.000000,,2013-09-27 21:54:00,
2013-09-27 17:00:00,73.0,57.0,-100.00,SE,135,5.0,13.0,57,0.00,,,0.00,110.000000,,2013-09-27 22:00:00,
2013-09-27 17:43:00,73.0,57.0,-100.00,SE,135,5.0,13.0,57,0.00,,,0.00,110.000000,,2013-09-27 22:43:00,
2013-09-27 17:53:00,73.0,57.0,-100.00,SE,135,5.0,13.0,57,0.00,,,0.00,110.000000,,2013-09-27 22:53:00,
2013-09-27 18:00:00,72.0,54.0,-100.00,SSE,159,6.0,13.0,53,0.00,,,0.00,137.000000,,2013-09-27 23:00:00,
2013-09-27 18:43:00,72.0,54.0,-100.00,SSE,159,6.0,13.0,53,0.00,,,0.00,137.000000,,2013-09-27 23:43:00,
2013-09-27 18:53:00,72.0,54.0,-100.00,SSE,159,6.0,13.0,53,0.00,,,0.00,137.000000,,2013-09-27 23:53:00,
2013-09-27 19:00:00,71.0,50.0,-100.00,SSE,163,5.0,14.0,48,0.00,,,0.00,24.000000,,2013-09-28 00:00:00,
2013-09-27 19:22:00,71.0,50.0,-100.00,SSE,163,5.0,14.0,48,0.00,,,0.00,24.000000,,2013-09-28 00:22:00,
2013-09-27 19:32:00,71.0,50.0,-100.00,SSE,163,5.0,14.0,48,0.00,,,0.00,24.000000,,2013-09-28 00:32:00,
2013-09-27 19:42:00,71.0,50.0,-100.00,SSE,163,5.0,14.0,48,0.00,,,0.00,24.000000,,2013-09-28 00:42:00,
2013-09-27 19:52:00,71.0,50.0,-100.00,SSE,163,5.0,14.0,48,0.00,,,0.00,24.000000,,2013-09-28 00:52:00,
2013-09-27 20:00:00,68.0,50.0,-100.00,SSE,160,4.0,11.0,52,0.00,,,0.00,0.000000,,2013-09-28 01:00:00,
2013-09-27 20:42:00,68.0,50.0,-100.00,SSE,160,4.0,11.0,52,0.00,,,0.00,0.000000,,2013-09-28 01:42:00,
2013-09-27 20:52:00,68.0,50.0,-100.00,SSE,160,4.0,11.0,52,0.00,,,0.00,0.000000,,2013-09-28 01:52:00,
2013-09-27 21:00:00,67.0,51.0,-100.00,SSE,157,3.0,10.0,56,0.00,,,0.00,0.000000,,2013-09-28 02:00:00,
2013-09-27 21:22:00,67.0,51.0,-100.00,SSE,157,3.0,10.0,56,0.00,,,0.00,0.000000,,2013-09-28 02:22:00,
2013-09-27 21:32:00,67.0,51.0,-100.00,SSE,157,3.0,10.0,56,0.00,,,0.00,0.000000,,2013-09-28 02:32:00,
2013-09-27 21:42:00,67.0,51.0,-100.00,SSE,157,3.0,10.0,56,0.00,,,0.00,0.000000,,2013-09-28 02:42:00,
2013-09-27 21:53:00,67.0,51.0,-100.00,SSE,157,3.0,10.0,56,0.00,,,0.00,0.000000,,2013-09-28 02:53:00,
2013-09-27 22:00:00,67.0,48.0,-100.00,SSE,163,5.0,12.0,51,0.00,,,0.00,0.000000,,2013-09-28 03:00:00,
2013-09-27 22:45:00,67.0,48.0,-100.00,SSE,163,5.0,12.0,51,0.00,,,0.00,0.000000,,2013-09-28 03:45:00,
2013-09-27 22:55:00,67.0,48.0,-100.00,SSE,163,5.0,12.0,51,0.00,,,0.00,0.000000,,2013-09-28 03:55:00,
2013-09-27 23:00:00,66.0,48.0,-100.00,SSE,162,4.0,11.0,53,0.00,,,0.00,0.000000,,2013-09-28 04:00:00,
2013-09-27 23:25:00,66.0,48.0,-100.00,SSE,162,4.0,11.0,53,0.00,,,0.00,0.000000,,2013-09-28 04:25:00,
2013-09-27 23:34:00,66.0,48.0,-100.00,SSE,162,4.0,11.0,53,0.00,,,0.00,0.000000,,2013-09-28 04:34:00,
2013-09-27 23:43:00,66.0,48.0,-100.00,SSE,162,4.0,11.0,53,0.00,,,0.00,0.000000,,2013-09-28 04:43:00,
2013-09-27 23:54:00,66.0,48.0,-100.00,SSE,162,4.0,11.0,53,0.00,,,0.00,0.000000,,2013-09-28 04:54:00,